Tracking 19795 objects as of 18-Jul-2019
HD Live streaming from Space Station
objects crossing your sky now

COSMOS 1473

Track COSMOS 1473 now!
10-day predictions
COSMOS 1473 is classified as:


NORAD ID: 14171
Int'l Code: 1983-069A
Perigee: 1,401.3 km
Apogee: 1,469.4 km
Inclination: 74.0 °
Period: 114.4 minutes
Semi major axis: 7806 km
RCS: 0.7151 m2 (medium)
Launch date: July 6, 1983
Source: Commonwealth of Independent States (former USSR) (CIS)
Launch site: PLESETSK MISSILE AND SPACE COMPLEX (PKMTR)
aabbcc
Your satellite tracking list
Your tracking list is empty




NASA's NSSDC Master Catalog

Two Line Element Set (TLE):
1 14171U 83069A   19198.33999990 -.00000034  00000-0 -10323-3 0  9990
2 14171  74.0242 163.1674 0043608 152.8700   1.4220 12.58719833655829
Source of the keplerian elements: AFSPC